#timestamp,LO_Frequency,Hit,StdDev 
1546405215.3,286046999.4,N
1546405235.1,286046998.3,N
1546405255.9,286047000.2,N
1546405275.7,286047000.4,N
1546405295.5,286047001.8,N
1546405315.4,286047001.9,N
1546405335.2,286047001.7,N
1546405355.0,286047002.8,N
1546405355.9,286047002.8,N
1546405375.8,286046998.1,N
1546405395.6,286046999.4,N
1546405415.5,286047000.6,N
1546405435.3,286047000.4,N
1546405455.1,286046998.9,N
1546405475.9,286046998.5,N
1546405495.7,286046999.8,N
1546405515.5,286047003.7,N
1546405535.4,286047002.2,N
1546405555.2,286047000.6,N
1546405575.0,286047000.7,N
1546405576.0,286047000.7,N
1546405595.8,286046998.8,N
1546405615.6,286046998.5,N
1546405635.5,286047001.0,N
1546405655.3,286047002.2,N
1546405675.1,286047000.0,N
1546405695.9,286047000.7,N
1546405715.7,286047000.8,N
1546405735.5,286046998.6,N
1546405755.4,286047002.1,N
1546405775.2,286047002.3,N
1546405795.1,286047000.1,N
1546405796.0,286047000.1,N
1546405815.8,286047001.9,N
1546405835.6,286047005.5,Y
1546405855.5,286047001.9,P
1546405875.3,286047001.9,P
1546405895.2,286046999.7,N
1546405915.9,286047000.3,N
1546405935.7,286047002.0,N
1546405955.6,286047004.3,Y
1546405975.4,286047000.9,P
1546405995.2,286047000.4,P
1546406015.1,286047001.1,P
1546406016.0,286047001.1,Y
1546406035.8,286046996.9,P
1546406055.7,286046999.2,N
1546406075.5,286046999.3,N
1546406095.3,286046999.7,N
1546406115.2,286047000.3,N
1546406135.0,286046998.1,N
1546406135.9,286046998.1,N
1546406155.7,286047001.2,N
1546406175.6,286047000.9,N
1546406195.4,286046998.8,N
1546406215.3,286046997.3,N
1546406235.1,286047000.7,N
1546406236.0,286047000.7,N
1546406255.8,286047000.9,N
1546406275.7,286047000.5,N
1546406295.5,286046999.8,N
1546406315.3,286046999.3,N
1546406335.2,286046999.2,N
1546406355.0,286046997.2,N
1546406355.9,286046997.2,N
1546406375.8,286046996.6,N
1546406395.6,286046997.7,N
1546406415.4,286046997.4,N
1546406435.3,286047000.6,N
1546406455.1,286047003.0,N
1546406475.8,286047005.2,Y
1546406495.7,286047006.0,P
1546406515.5,286047001.5,N
1546406535.4,286047001.6,N
1546406555.2,286047002.7,N
1546406575.0,286047002.5,N
1546406575.9,286047002.5,N
1546406595.8,286047002.8,N
1546406615.6,286047002.7,N
1546406635.5,286047002.8,N
1546406655.3,286047001.9,N
1546406675.1,286047002.7,N
1546406695.9,286047000.6,N
1546406715.7,286046998.8,N
1546406735.5,286046998.5,N
1546406755.4,286047000.0,N
1546406775.2,286046998.2,N
1546406795.1,286046998.4,N
1546406796.0,286046998.4,N
1546406815.8,286047002.1,N
1546406835.6,286047002.6,N
1546406855.5,286047000.9,N
1546406875.3,286047001.0,N
1546406895.1,286047000.2,N
1546406915.9,286047002.8,N
1546406935.7,286047001.2,N
1546406955.6,286047000.2,N
1546406975.4,286047002.3,N
1546406995.2,286047007.5,Y
1546407015.1,286047005.5,P
1546407016.0,286047005.5,N
1546407035.8,286047005.8,N
1546407055.6,286047002.9,N
1546407075.5,286047003.6,N
1546407095.3,286046999.8,N
1546407115.2,286047000.4,N
1546407135.9,286047002.4,N
1546407155.7,286047005.0,N
1546407175.6,286047005.8,N
1546407195.4,286047007.6,Y
1546407215.2,286047001.9,P
1546407235.1,286046998.3,N
1546407236.0,286046998.3,N
1546407255.8,286046996.8,N
1546407275.7,286046996.5,N
1546407295.5,286047011.9,Y
1546407315.3,286047003.1,P
1546407335.2,286047000.1,N
1546407355.0,286046999.8,N
1546407355.9,286046999.8,N
1546407375.8,286047000.1,N
1546407395.6,286047000.2,N
1546407415.4,286047000.5,N
1546407435.3,286047001.3,N
1546407455.1,286047000.2,N
1546407475.8,286047000.6,N
1546407495.7,286047001.8,N
1546407515.5,286047003.7,Y
1546407535.4,286047002.1,P
1546407555.2,286047002.3,N
1546407575.0,286047003.6,P
1546407575.9,286047003.6,Y
1546407595.8,286046998.1,P
1546407615.6,286046998.6,N
1546407635.5,286047000.8,N
1546407655.3,286046999.0,N
1546407675.1,286047002.8,N
1546407695.9,286047000.4,N
1546407715.7,286047002.0,N
1546407735.6,286047002.3,N
1546407755.4,286047000.3,N
1546407775.2,286047001.1,N
1546407795.1,286046997.9,N
1546407796.0,286046997.9,N
1546407815.8,286046997.0,N
1546407835.6,286046999.6,N
1546407855.5,286046998.6,N
1546407875.3,286046996.9,N
1546407895.2,286046998.0,N
1546407915.9,286046995.5,N
1546407935.7,286046996.4,N
1546407955.6,286046996.0,N
1546407975.4,286046996.3,N
1546407995.2,286046996.3,N
1546408015.1,286046995.9,N
1546408016.0,286046995.9,N
1546408035.8,286046996.4,N
1546408055.7,286046995.8,N
1546408075.5,286046993.7,N
1546408095.3,286046993.5,N
1546408115.2,286046995.3,N
1546408135.0,286046997.2,N
1546408135.9,286046997.2,N
1546408155.8,286046999.5,N
1546408175.6,286046998.6,N
1546408195.4,286046996.9,N
1546408215.3,286046999.0,N
1546408235.1,286046998.4,N
1546408255.9,286046997.5,N
1546408275.7,286046995.2,N
1546408295.5,286046996.4,N
1546408315.4,286046996.2,N
1546408335.2,286046995.1,Y
1546408355.0,286047002.0,P
1546408356.0,286047002.0,N
1546408375.8,286047000.4,N
1546408395.6,286047002.4,N
1546408415.5,286047002.2,N
1546408435.3,286047005.5,N
1546408455.1,286047005.9,N
1546408475.9,286047005.3,N
1546408495.7,286047005.9,N
1546408515.5,286047005.5,N
1546408535.4,286047005.9,N
1546408555.2,286047005.9,N
1546408575.1,286047005.3,N
1546408576.0,286047005.3,N
1546408595.8,286047003.0,N
1546408615.6,286047003.9,N
1546408635.5,286047001.5,N
1546408655.3,286047002.2,N
1546408675.1,286047003.6,N
1546408695.9,286047003.6,N
1546408715.7,286047004.3,N
1546408735.6,286047001.9,N
1546408755.4,286047003.9,N
1546408775.2,286047000.9,N
1546408795.1,286046998.2,N
1546408796.0,286046998.2,N
